^^
Datos históricos de la estación: Murcia-Puente Tocinos
 
Diario Informe para Junio 25, 2017 Unidades:  Métrico    Inglés   Ambas
« Anterior Día
Siguiente Día »
Diario Semanal Mensual Anual Configurable
  Actual: Máximo: Mínimo: Media:
Temperatura: 30.1 °C 33.1 °C 22.8 °C 27.2 °C
Punto de rocio: 15.8 °C 21.1 °C 11.9 °C 18.4 °C
Humedad: 42% 84% 29% 62%
Velocidad viento: 13.7km/h 22.0km/h 0.0km/h 8.5km/h
Racha viento: 25.9km/h 33.3km/h - -
VientoENE - - Este
Presión: 1011.4 hPa 1013.8 hPa 1011.4 hPa -
Precipitación: 0.0 mm      
Historical Graphs
 
 
Tabla de datos para Junio 25, 2017
Hora Temperatura Punto de rocio Presión Viento Velocidad viento Racha viento Humedad Intensidad lluvia(por hora) Nubes
00:03 25.7 °C 20.9 °C 1013.8 hPa North 6.4 km/h 7.4 km/h 75% 0.0 mm CLR
00:08 25.7 °C 20.9 °C 1013.8 hPa NNE 6.4 km/h 11.1 km/h 75% 0.0 mm CLR
00:13 25.6 °C 20.8 °C 1013.8 hPa NE 6.4 km/h 9.3 km/h 75% 0.0 mm CLR
00:18 25.5 °C 20.9 °C 1013.8 hPa NE 7.6 km/h 7.6 km/h 76% 0.0 mm CLR
00:23 25.4 °C 20.8 °C 1013.8 hPa NNW 7.6 km/h 13.0 km/h 76% 0.0 mm CLR
00:28 25.4 °C 20.8 °C 1013.8 hPa NE 7.6 km/h 7.6 km/h 76% 0.0 mm CLR
00:33 25.4 °C 20.7 °C 1013.8 hPa NNE 7.6 km/h 11.1 km/h 75% 0.0 mm CLR
00:38 25.3 °C 20.6 °C 1013.8 hPa NNE 7.6 km/h 11.1 km/h 75% 0.0 mm CLR
00:43 25.3 °C 20.6 °C 1013.8 hPa North 7.6 km/h 9.3 km/h 75% 0.0 mm CLR
00:48 25.3 °C 20.6 °C 1013.8 hPa NNE 5.8 km/h 11.1 km/h 75% 0.0 mm CLR
00:53 25.3 °C 20.6 °C 1013.8 hPa NNE 5.8 km/h 7.4 km/h 75% 0.0 mm CLR
00:58 25.2 °C 20.4 °C 1013.8 hPa North 6.4 km/h 9.3 km/h 75% 0.0 mm CLR
01:03 25.2 °C 20.4 °C 1013.8 hPa NNE 6.4 km/h 9.3 km/h 75% 0.0 mm CLR
01:08 25.1 °C 20.3 °C 1013.8 hPa NNE 6.9 km/h 9.3 km/h 75% 0.0 mm CLR
01:13 25.1 °C 20.3 °C 1013.4 hPa NNE 6.9 km/h 11.1 km/h 75% 0.0 mm CLR
01:18 25.1 °C 20.3 °C 1013.4 hPa NE 7.6 km/h 11.1 km/h 75% 0.0 mm CLR
01:23 25.1 °C 20.3 °C 1013.4 hPa NNE 7.6 km/h 11.1 km/h 75% 0.0 mm CLR
01:28 25.1 °C 20.3 °C 1013.4 hPa ENE 6.9 km/h 9.3 km/h 75% 0.0 mm CLR
01:33 25.1 °C 20.3 °C 1013.4 hPa NW 6.9 km/h 7.4 km/h 75% 0.0 mm CLR
01:38 25.1 °C 20.3 °C 1013.4 hPa NE 3.9 km/h 5.6 km/h 75% 0.0 mm CLR
01:43 24.9 °C 20.2 °C 1013.4 hPa NNW 3.9 km/h 5.6 km/h 75% 0.0 mm CLR
01:48 24.9 °C 20.2 °C 1013.4 hPa North 2.9 km/h 5.6 km/h 75% 0.0 mm CLR
01:53 24.9 °C 20.2 °C 1013.4 hPa NNW 2.9 km/h 5.6 km/h 75% 0.0 mm CLR
01:58 24.8 °C 20.1 °C 1013.1 hPa North 3.9 km/h 7.4 km/h 75% 0.0 mm CLR
02:03 24.8 °C 20.3 °C 1013.1 hPa NE 3.9 km/h 3.9 km/h 76% 0.0 mm CLR
02:08 24.7 °C 20.2 °C 1013.1 hPa ENE 3.2 km/h 3.7 km/h 76% 0.0 mm CLR
02:13 24.7 °C 20.2 °C 1013.1 hPa NE 3.2 km/h 7.4 km/h 76% 0.0 mm CLR
02:18 24.7 °C 20.2 °C 1013.1 hPa NE 3.2 km/h 3.7 km/h 76% 0.0 mm CLR
02:23 24.7 °C 20.2 °C 1013.1 hPa NE 3.2 km/h 3.7 km/h 76% 0.0 mm CLR
02:28 24.6 °C 20.1 °C 1012.8 hPa NE 2.9 km/h 7.4 km/h 76% 0.0 mm CLR
02:33 24.5 °C 20.0 °C 1012.8 hPa NE 2.9 km/h 7.4 km/h 76% 0.0 mm CLR
02:38 24.5 °C 20.2 °C 1012.8 hPa WNW 3.9 km/h 5.6 km/h 77% 0.0 mm CLR
02:43 24.5 °C 20.2 °C 1013.1 hPa WNW 3.9 km/h 9.3 km/h 77% 0.0 mm CLR
02:48 24.4 °C 20.1 °C 1013.1 hPa NW 5.0 km/h 9.3 km/h 77% 0.0 mm CLR
02:53 24.3 °C 20.0 °C 1013.1 hPa NW 5.0 km/h 5.0 km/h 77% 0.0 mm CLR
02:58 24.3 °C 20.0 °C 1013.1 hPa NW 2.9 km/h 3.7 km/h 77% 0.0 mm CLR
03:03 24.2 °C 19.9 °C 1013.1 hPa NW 2.9 km/h 3.7 km/h 77% 0.0 mm CLR
03:08 24.2 °C 20.1 °C 1013.1 hPa North 2.3 km/h 3.7 km/h 78% 0.0 mm CLR
03:13 24.2 °C 20.1 °C 1012.8 hPa ENE 2.3 km/h 3.7 km/h 78% 0.0 mm CLR
03:18 24.2 °C 19.9 °C 1012.8 hPa ENE 3.2 km/h 5.6 km/h 77% 0.0 mm CLR
03:23 24.2 °C 19.9 °C 1012.8 hPa ESE 3.2 km/h 6.4 km/h 77% 0.0 mm CLR
03:28 24.2 °C 19.9 °C 1012.4 hPa ENE 3.9 km/h 7.4 km/h 77% 0.0 mm CLR
03:33 24.2 °C 20.1 °C 1012.4 hPa ESE 3.9 km/h 7.4 km/h 78% 0.0 mm CLR
03:38 24.1 °C 20.0 °C 1012.4 hPa East 5.0 km/h 7.4 km/h 78% 0.0 mm CLR
03:41 24.0 °C 19.9 °C 1012.4 hPa East 5.0 km/h 7.4 km/h 78% 0.0 mm CLR
03:46 23.9 °C 20.1 °C 1012.4 hPa East 5.0 km/h 7.4 km/h 79% 0.0 mm CLR
03:51 23.9 °C 20.1 °C 1012.4 hPa East 4.7 km/h 4.7 km/h 79% 0.0 mm CLR
03:56 23.9 °C 20.1 °C 1012.4 hPa East 4.7 km/h 4.7 km/h 79% 0.0 mm CLR
04:01 23.9 °C 20.1 °C 1012.4 hPa ENE 2.3 km/h 4.7 km/h 79% 0.0 mm CLR
04:06 23.9 °C 20.1 °C 1012.4 hPa ENE 2.3 km/h 3.7 km/h 79% 0.0 mm CLR
04:11 24.0 °C 20.1 °C 1012.4 hPa NE 2.9 km/h 5.6 km/h 79% 0.0 mm CLR
04:16 24.0 °C 20.1 °C 1012.4 hPa NE 2.9 km/h 3.9 km/h 79% 0.0 mm CLR
04:21 23.9 °C 20.1 °C 1012.4 hPa East 3.2 km/h 5.6 km/h 79% 0.0 mm CLR
04:26 23.9 °C 20.1 °C 1012.4 hPa East 3.2 km/h 3.7 km/h 79% 0.0 mm CLR
04:31 23.9 °C 20.1 °C 1012.4 hPa East 2.9 km/h 3.7 km/h 79% 0.0 mm CLR
04:36 23.9 °C 20.1 °C 1012.4 hPa East 2.9 km/h 4.7 km/h 79% 0.0 mm CLR
04:41 23.9 °C 20.1 °C 1012.4 hPa Calm   3.7 km/h 79% 0.0 mm CLR
04:46 24.0 °C 20.3 °C 1012.4 hPa Calm   3.9 km/h 80% 0.0 mm CLR
04:51 24.0 °C 20.3 °C 1012.4 hPa East 2.9 km/h 3.9 km/h 80% 0.0 mm CLR
04:56 23.9 °C 20.2 °C 1012.4 hPa NNE 2.9 km/h 3.7 km/h 80% 0.0 mm CLR
05:01 23.9 °C 20.4 °C 1012.4 hPa NE 3.2 km/h 4.7 km/h 81% 0.0 mm CLR
05:06 23.8 °C 20.3 °C 1012.4 hPa NNE 3.2 km/h 5.0 km/h 81% 0.0 mm CLR
05:11 23.7 °C 20.1 °C 1012.4 hPa NNE 3.2 km/h 7.4 km/h 80% 0.0 mm CLR
05:16 23.5 °C 20.2 °C 1012.4 hPa NNW 3.2 km/h 3.9 km/h 82% 0.0 mm CLR
05:21 23.4 °C 20.2 °C 1012.4 hPa NNW 3.9 km/h 3.9 km/h 82% 0.0 mm CLR
05:26 23.4 °C 20.2 °C 1012.4 hPa NNE 3.9 km/h 3.9 km/h 82% 0.0 mm CLR
05:31 23.4 °C 20.2 °C 1012.4 hPa North 2.9 km/h 5.6 km/h 82% 0.0 mm CLR
05:36 23.3 °C 20.1 °C 1012.4 hPa North 2.9 km/h 3.7 km/h 82% 0.0 mm CLR
05:41 23.3 °C 20.1 °C 1012.4 hPa North 2.9 km/h 3.7 km/h 82% 0.0 mm CLR
05:46 23.3 °C 20.2 °C 1012.4 hPa North 2.9 km/h 3.7 km/h 83% 0.0 mm CLR
05:51 23.3 °C 20.2 °C 1012.4 hPa North 2.9 km/h 3.7 km/h 83% 0.0 mm CLR
05:56 23.3 °C 20.2 °C 1012.4 hPa North 2.9 km/h 3.7 km/h 83% 0.0 mm CLR
06:01 23.3 °C 20.2 °C 1012.8 hPa North 2.3 km/h 3.7 km/h 83% 0.0 mm CLR
06:06 23.3 °C 20.2 °C 1012.8 hPa ENE 2.3 km/h 4.7 km/h 83% 0.0 mm CLR
06:11 23.4 °C 20.3 °C 1012.8 hPa ENE 2.9 km/h 5.6 km/h 83% 0.0 mm CLR
06:16 23.3 °C 20.2 °C 1012.4 hPa ENE 2.9 km/h 3.7 km/h 83% 0.0 mm CLR
06:21 23.4 °C 20.3 °C 1012.4 hPa NNE 3.9 km/h 3.9 km/h 83% 0.0 mm CLR
06:26 23.3 °C 20.2 °C 1012.4 hPa ENE 3.9 km/h 3.9 km/h 83% 0.0 mm CLR
06:31 23.2 °C 20.2 °C 1012.8 hPa NE 3.2 km/h 7.4 km/h 83% 0.0 mm CLR
06:36 23.2 °C 20.2 °C 1012.8 hPa NE 3.2 km/h 7.4 km/h 83% 0.0 mm CLR
06:41 23.1 °C 20.1 °C 1012.8 hPa NE 4.7 km/h 5.6 km/h 83% 0.0 mm CLR
06:46 23.1 °C 20.1 °C 1012.8 hPa NNE 4.7 km/h 4.7 km/h 83% 0.0 mm CLR
06:51 23.1 °C 20.1 °C 1012.8 hPa NNE 3.2 km/h 3.7 km/h 83% 0.0 mm CLR
06:56 23.0 °C 19.9 °C 1012.8 hPa NNE 3.2 km/h 3.7 km/h 83% 0.0 mm CLR
07:01 22.9 °C 19.8 °C 1012.8 hPa NNE 2.9 km/h 4.7 km/h 83% 0.0 mm CLR
07:06 22.9 °C 20.1 °C 1012.8 hPa NNE 2.9 km/h 3.9 km/h 84% 0.0 mm CLR
07:11 22.8 °C 19.9 °C 1012.8 hPa East 3.2 km/h 5.6 km/h 84% 0.0 mm CLR
07:16 22.8 °C 19.9 °C 1012.8 hPa NE 3.2 km/h 7.4 km/h 84% 0.0 mm
07:21 22.8 °C 19.9 °C 1012.8 hPa ENE 3.9 km/h 7.4 km/h 84% 0.0 mm
07:26 22.8 °C 19.9 °C 1012.8 hPa ENE 3.9 km/h 7.4 km/h 84% 0.0 mm
07:31 22.8 °C 19.9 °C 1012.8 hPa NNE 4.7 km/h 7.4 km/h 84% 0.0 mm
07:36 22.8 °C 19.8 °C 1012.8 hPa NE 4.7 km/h 5.6 km/h 83% 0.0 mm
07:41 22.9 °C 19.8 °C 1012.8 hPa NNE 3.9 km/h 3.9 km/h 83% 0.0 mm
07:46 23.1 °C 19.8 °C 1013.1 hPa NNW 3.9 km/h 5.6 km/h 82% 0.0 mm
07:51 23.1 °C 19.8 °C 1013.1 hPa NE 2.9 km/h 7.4 km/h 82% 0.0 mm
07:56 23.1 °C 19.8 °C 1013.1 hPa NNE 2.9 km/h 7.4 km/h 82% 0.0 mm
08:01 23.2 °C 19.8 °C 1013.1 hPa NE 3.2 km/h 7.4 km/h 81% 0.0 mm
08:06 23.2 °C 19.8 °C 1013.1 hPa North 3.2 km/h 9.3 km/h 81% 0.0 mm
08:11 23.3 °C 19.8 °C 1013.1 hPa NNE 5.0 km/h 7.4 km/h 81% 0.0 mm
08:16 23.4 °C 19.9 °C 1013.4 hPa NE 5.0 km/h 9.3 km/h 81% 0.0 mm
08:21 23.4 °C 19.9 °C 1013.4 hPa NE 5.8 km/h 7.4 km/h 81% 0.0 mm
08:26 23.4 °C 19.9 °C 1013.4 hPa NNE 5.8 km/h 9.3 km/h 81% 0.0 mm
08:31 23.4 °C 19.9 °C 1013.4 hPa North 5.0 km/h 7.4 km/h 81% 0.0 mm
08:36 23.5 °C 20.2 °C 1013.4 hPa North 5.0 km/h 9.3 km/h 82% 0.0 mm
08:41 23.7 °C 20.2 °C 1013.4 hPa NE 5.0 km/h 7.4 km/h 81% 0.0 mm
08:46 23.8 °C 20.2 °C 1013.4 hPa NNE 5.8 km/h 7.4 km/h 80% 0.0 mm CLR
08:52 24.0 °C 20.3 °C 1013.4 hPa North 5.8 km/h 9.3 km/h 80% 0.0 mm CLR
08:57 24.2 °C 20.3 °C 1013.4 hPa NE 5.8 km/h 7.4 km/h 79% 0.0 mm CLR
09:01 24.5 °C 20.4 °C 1013.1 hPa NE 5.8 km/h 9.3 km/h 78% 0.0 mm CLR
09:07 24.8 °C 20.5 °C 1013.1 hPa NE 5.8 km/h 13.0 km/h 77% 0.0 mm CLR
09:12 24.9 °C 20.6 °C 1013.1 hPa ENE 5.8 km/h 12.2 km/h 77% 0.0 mm CLR
09:17 25.2 °C 20.7 °C 1013.1 hPa NNW 5.8 km/h 8.4 km/h 76% 0.0 mm CLR
09:22 25.3 °C 20.6 °C 1013.1 hPa NNE 7.6 km/h 16.7 km/h 75% 0.0 mm CLR
09:27 25.5 °C 20.7 °C 1013.1 hPa East 8.7 km/h 13.0 km/h 75% 0.0 mm CLR
09:32 25.7 °C 20.9 °C 1013.4 hPa NNE 8.7 km/h 14.8 km/h 75% 0.0 mm CLR
09:37 25.9 °C 20.9 °C 1013.4 hPa NNE 8.7 km/h 16.7 km/h 74% 0.0 mm CLR
09:42 26.1 °C 21.1 °C 1013.4 hPa NNE 8.7 km/h 11.1 km/h 74% 0.0 mm CLR
09:43 26.1 °C 20.9 °C 1013.1 hPa NE 8.7 km/h 13.0 km/h 73% 0.0 mm CLR
09:48 26.1 °C 20.9 °C 1013.1 hPa NNE 8.7 km/h 13.0 km/h 73% 0.0 mm CLR
09:53 26.2 °C 20.8 °C 1013.1 hPa ENE 8.7 km/h 13.0 km/h 72% 0.0 mm CLR
09:58 26.2 °C 20.3 °C 1013.1 hPa NNE 9.5 km/h 16.7 km/h 70% 0.0 mm CLR
10:03 26.2 °C 20.1 °C 1013.1 hPa NE 9.5 km/h 16.7 km/h 69% 0.0 mm CLR
10:08 26.3 °C 19.9 °C 1013.1 hPa NE 11.9 km/h 16.7 km/h 68% 0.0 mm CLR
10:09 26.3 °C 19.9 °C 1013.1 hPa NNE 11.3 km/h 16.1 km/h 68% 0.0 mm CLR
10:14 26.5 °C 19.9 °C 1013.1 hPa NE 11.3 km/h 17.7 km/h 67% 0.0 mm CLR
10:19 26.7 °C 19.3 °C 1013.1 hPa NE 9.7 km/h 14.5 km/h 64% 0.0 mm CLR
10:24 26.9 °C 19.0 °C 1013.1 hPa North 10.0 km/h 14.8 km/h 62% 0.0 mm CLR
10:29 27.3 °C 19.1 °C 1013.1 hPa NNE 9.5 km/h 11.1 km/h 61% 0.0 mm CLR
10:34 27.7 °C 18.9 °C 1013.1 hPa NE 9.5 km/h 14.8 km/h 59% 0.0 mm CLR
10:39 27.9 °C 18.9 °C 1013.1 hPa NNE 10.0 km/h 14.8 km/h 58% 0.0 mm CLR
10:44 28.2 °C 17.7 °C 1013.1 hPa NE 10.0 km/h 18.5 km/h 53% 0.0 mm CLR
10:49 28.3 °C 16.9 °C 1013.1 hPa NE 10.3 km/h 20.4 km/h 50% 0.0 mm CLR
10:54 28.4 °C 16.7 °C 1013.1 hPa NNE 10.3 km/h 22.2 km/h 49% 0.0 mm CLR
10:59 28.7 °C 16.9 °C 1012.8 hPa NE 15.6 km/h 18.5 km/h 49% 0.0 mm CLR
11:04 29.1 °C 16.3 °C 1012.8 hPa NE 15.6 km/h 18.5 km/h 46% 0.0 mm CLR
11:09 29.1 °C 15.9 °C 1012.8 hPa NNE 13.0 km/h 22.2 km/h 45% 0.0 mm CLR
11:14 29.4 °C 16.2 °C 1012.8 hPa NE 13.0 km/h 18.5 km/h 45% 0.0 mm CLR
11:19 29.6 °C 16.8 °C 1012.8 hPa NNE 12.2 km/h 20.4 km/h 46% 0.0 mm CLR
11:24 29.6 °C 16.4 °C 1012.8 hPa ENE 12.2 km/h 18.5 km/h 45% 0.0 mm CLR
11:29 29.8 °C 16.6 °C 1013.1 hPa North 13.0 km/h 14.8 km/h 45% 0.0 mm CLR
11:34 30.2 °C 15.9 °C 1013.1 hPa ENE 13.0 km/h 18.5 km/h 42% 0.0 mm CLR
11:39 30.6 °C 15.4 °C 1013.1 hPa NNW 8.7 km/h 16.7 km/h 40% 0.0 mm CLR
11:44 30.7 °C 15.9 °C 1013.1 hPa NW 8.7 km/h 13.0 km/h 41% 0.0 mm CLR
11:49 30.8 °C 16.0 °C 1013.1 hPa NNW 7.6 km/h 13.0 km/h 41% 0.0 mm CLR
11:54 31.1 °C 16.3 °C 1013.1 hPa NNW 7.6 km/h 14.8 km/h 41% 0.0 mm CLR
11:59 31.2 °C 16.0 °C 1013.1 hPa East 8.7 km/h 11.1 km/h 40% 0.0 mm CLR
12:04 31.3 °C 16.8 °C 1013.1 hPa NNE 8.7 km/h 11.1 km/h 42% 0.0 mm CLR
12:09 31.3 °C 16.8 °C 1013.1 hPa North 6.9 km/h 16.7 km/h 42% 0.0 mm CLR
12:11 31.2 °C 16.8 °C 1013.1 hPa North 6.9 km/h 14.8 km/h 42% 0.0 mm CLR
12:16 31.3 °C 16.1 °C 1013.1 hPa NE 6.9 km/h 24.1 km/h 40% 0.0 mm CLR
12:21 31.2 °C 16.0 °C 1013.1 hPa NE 12.2 km/h 14.8 km/h 40% 0.0 mm CLR
12:26 31.7 °C 16.4 °C 1013.1 hPa NE 12.2 km/h 15.6 km/h 40% 0.0 mm CLR
12:31 31.7 °C 16.1 °C 1013.4 hPa East 10.0 km/h 13.0 km/h 39% 0.0 mm CLR
12:36 31.7 °C 16.1 °C 1013.4 hPa NNE 10.0 km/h 18.5 km/h 39% 0.0 mm CLR
12:41 31.8 °C 16.1 °C 1013.4 hPa North 11.9 km/h 14.8 km/h 39% 0.0 mm CLR
12:46 31.8 °C 16.1 °C 1013.1 hPa ENE 11.9 km/h 27.8 km/h 39% 0.0 mm CLR
12:51 31.7 °C 15.6 °C 1013.1 hPa North 11.9 km/h 20.4 km/h 38% 0.0 mm CLR
12:56 31.8 °C 15.7 °C 1013.1 hPa NE 11.9 km/h 27.8 km/h 38% 0.0 mm CLR
13:01 31.6 °C 15.6 °C 1013.1 hPa NW 11.9 km/h 18.5 km/h 38% 0.0 mm CLR
13:06 31.8 °C 16.1 °C 1013.1 hPa NE 11.9 km/h 21.7 km/h 39% 0.0 mm CLR
13:11 31.9 °C 15.8 °C 1013.1 hPa NNE 13.0 km/h 24.1 km/h 38% 0.0 mm CLR
13:16 32.1 °C 15.6 °C 1012.8 hPa NE 13.0 km/h 16.1 km/h 37% 0.0 mm CLR
13:21 32.3 °C 14.4 °C 1012.8 hPa NE 13.7 km/h 25.9 km/h 34% 0.0 mm CLR
13:26 32.2 °C 14.3 °C 1012.8 hPa NE 13.7 km/h 22.2 km/h 34% 0.0 mm CLR
13:31 32.2 °C 12.9 °C 1012.8 hPa North 16.4 km/h 24.1 km/h 31% 0.0 mm CLR
13:36 32.2 °C 12.9 °C 1012.8 hPa NE 16.4 km/h 19.0 km/h 31% 0.0 mm CLR
13:41 32.2 °C 12.9 °C 1012.8 hPa NNE 15.6 km/h 18.5 km/h 31% 0.0 mm CLR
13:46 32.2 °C 11.9 °C 1012.8 hPa NNE 15.6 km/h 24.1 km/h 29% 0.0 mm CLR
13:51 32.3 °C 12.5 °C 1012.8 hPa NNE 15.6 km/h 18.5 km/h 30% 0.0 mm CLR
13:56 32.5 °C 14.2 °C 1012.8 hPa ENE 15.6 km/h 22.2 km/h 33% 0.0 mm CLR
14:01 32.5 °C 13.2 °C 1012.8 hPa NE 15.6 km/h 25.9 km/h 31% 0.0 mm CLR
14:06 32.5 °C 14.2 °C 1012.8 hPa NE 15.6 km/h 29.6 km/h 33% 0.0 mm CLR
14:11 32.3 °C 14.4 °C 1012.8 hPa NNE 17.2 km/h 24.5 km/h 34% 0.0 mm CLR
14:16 32.3 °C 14.0 °C 1012.1 hPa NNE 17.2 km/h 27.8 km/h 33% 0.0 mm CLR
14:21 32.2 °C 14.3 °C 1012.1 hPa ENE 18.3 km/h 31.5 km/h 34% 0.0 mm CLR
14:26 32.1 °C 14.7 °C 1012.1 hPa NE 18.3 km/h 33.3 km/h 35% 0.0 mm CLR
14:31 32.1 °C 14.7 °C 1012.1 hPa North 22.0 km/h 33.3 km/h 35% 0.0 mm CLR
14:36 32.0 °C 14.6 °C 1012.1 hPa NNE 22.0 km/h 31.5 km/h 35% 0.0 mm CLR
14:41 32.2 °C 14.8 °C 1012.1 hPa ENE 19.8 km/h 24.1 km/h 35% 0.0 mm CLR
14:46 32.5 °C 14.6 °C 1011.7 hPa NE 19.8 km/h 25.9 km/h 34% 0.0 mm CLR
14:51 32.3 °C 14.4 °C 1011.7 hPa NNE 18.0 km/h 33.3 km/h 34% 0.0 mm CLR
14:56 32.6 °C 15.2 °C 1011.7 hPa NNE 18.0 km/h 25.9 km/h 35% 0.0 mm CLR
15:01 32.8 °C 15.8 °C 1011.7 hPa NE 22.0 km/h 24.1 km/h 36% 0.0 mm CLR
15:06 33.1 °C 15.6 °C 1011.7 hPa ESE 22.0 km/h 29.8 km/h 35% 0.0 mm CLR
15:11 32.9 °C 15.4 °C 1011.7 hPa NE 14.8 km/h 25.9 km/h 35% 0.0 mm CLR
15:16 32.8 °C 16.2 °C 1011.7 hPa NNE 14.8 km/h 25.9 km/h 37% 0.0 mm CLR
15:21 32.7 °C 16.1 °C 1011.7 hPa NE 17.2 km/h 29.6 km/h 37% 0.0 mm CLR
15:26 32.6 °C 16.8 °C 1011.7 hPa ESE 17.2 km/h 18.5 km/h 39% 0.0 mm CLR
15:31 32.5 °C 16.8 °C 1011.7 hPa East 15.6 km/h 27.8 km/h 39% 0.0 mm CLR
15:36 32.3 °C 16.6 °C 1011.7 hPa ENE 15.6 km/h 25.9 km/h 39% 0.0 mm CLR
15:41 32.4 °C 17.1 °C 1011.7 hPa ESE 16.1 km/h 22.2 km/h 40% 0.0 mm CLR
15:46 32.2 °C 16.9 °C 1011.7 hPa ENE 16.1 km/h 25.9 km/h 40% 0.0 mm CLR
15:52 32.1 °C 16.4 °C 1011.7 hPa NNE 16.1 km/h 27.8 km/h 39% 0.0 mm CLR
15:57 31.8 °C 16.6 °C 1011.7 hPa East 18.0 km/h 27.8 km/h 40% 0.0 mm CLR
16:02 32.1 °C 16.8 °C 1011.4 hPa NNW 18.0 km/h 25.9 km/h 40% 0.0 mm CLR
16:07 32.2 °C 16.9 °C 1011.4 hPa ENE 13.0 km/h 20.4 km/h 40% 0.0 mm CLR
16:12 32.1 °C 16.8 °C 1011.4 hPa NE 13.0 km/h 20.4 km/h 40% 0.0 mm CLR
16:17 32.2 °C 16.5 °C 1011.4 hPa NE 14.8 km/h 24.1 km/h 39% 0.0 mm CLR
16:22 32.3 °C 16.2 °C 1011.4 hPa NE 14.8 km/h 20.1 km/h 38% 0.0 mm CLR
16:27 32.2 °C 16.5 °C 1011.4 hPa NE 13.0 km/h 24.1 km/h 39% 0.0 mm CLR
16:32 31.9 °C 16.2 °C 1011.4 hPa NE 13.0 km/h 25.6 km/h 39% 0.0 mm CLR
16:37 31.5 °C 16.3 °C 1011.4 hPa NNE 16.4 km/h 29.6 km/h 40% 0.0 mm CLR
16:42 31.3 °C 16.1 °C 1011.4 hPa NE 16.4 km/h 25.9 km/h 40% 0.0 mm CLR
16:47 31.3 °C 16.5 °C 1011.4 hPa East 14.8 km/h 24.1 km/h 41% 0.0 mm CLR
16:52 31.3 °C 16.5 °C 1011.4 hPa ENE 14.8 km/h 24.1 km/h 41% 0.0 mm CLR
16:57 31.3 °C 15.7 °C 1011.4 hPa ENE 13.0 km/h 24.1 km/h 39% 0.0 mm CLR
17:02 31.1 °C 16.3 °C 1011.7 hPa NE 13.0 km/h 20.4 km/h 41% 0.0 mm CLR
17:07 31.1 °C 16.7 °C 1011.7 hPa ENE 11.1 km/h 16.7 km/h 42% 0.0 mm CLR
17:12 30.9 °C 16.9 °C 1011.7 hPa NNE 11.1 km/h 22.2 km/h 43% 0.0 mm CLR
17:17 31.1 °C 17.1 °C 1011.4 hPa NE 11.9 km/h 11.9 km/h 43% 0.0 mm CLR
17:22 30.8 °C 16.8 °C 1011.4 hPa NE 11.9 km/h 22.2 km/h 43% 0.0 mm CLR
17:27 30.6 °C 16.9 °C 1011.4 hPa NNE 11.9 km/h 11.9 km/h 44% 0.0 mm CLR
17:32 30.6 °C 16.6 °C 1011.4 hPa NNE 11.9 km/h 22.2 km/h 43% 0.0 mm CLR
17:37 30.2 °C 16.6 °C 1011.4 hPa ENE 13.7 km/h 20.4 km/h 44% 0.0 mm CLR
17:42 30.1 °C 15.8 °C 1011.4 hPa ENE 13.7 km/h 25.9 km/h 42% 0.0 mm CLR
Murcia-Puente Tocinos, España
Compliments of Weather Underground - 2.5 mb

La estación de MeteoMurcia.com, publica sus datos en los siguientes proyectos:

Meteoclimatic www.awekas.at

W3Counter
Web Analytics